QPF
0.01 0.01 0.02 0.03 0.06 0.08 0.08 0.05 0.02 0.00 0.00 0.00 0.00 0.00 0.00 0.00 0.00 0.03 0.10 0.15 0.09 0.05 0.03 0.01 0.00 0.00 0.00 0.00 0.00 0.00 0.00 0.00 0.00 0.00 0.00 0.00 0.00 0.00
0.00 0.00 0.01 0.01 0.02 0.05 0.09 0.09 0.10 0.06 0.01 0.00 0.00 0.00 0.00 0.00 0.00 0.00 0.01 0.01 0.02 0.02 0.01 0.01 0.00 0.00 0.00 0.00 0.00 0.00 0.00 0.00 0.00 0.00 0.00 0.00 0.00 0.00
0.00 0.00 0.00 0.00 0.00 0.00 0.01 0.01 0.00 0.00 0.00 0.00 0.00 0.00 0.00 0.00 0.00 0.00 0.00 0.00 0.00 0.00 0.00 0.00 0.00 0.00 0.00 0.00 0.00 0.00 0.00 0.00 0.00 0.00 0.00 0.00 0.00 0.00
0.00 0.00 0.00 0.00 0.00 0.00 0.00 0.00 0.00 0.00 0.00 0.00 0.00 0.00 0.00 0.00 0.00 0.00 0.00 0.00 0.00 0.00 0.00 0.00 0.00 0.00 0.00 0.00 0.00 0.00 0.00 0.00 0.00 0.00 0.00 0.00 0.00 0.00
0.00 0.00 0.00 0.00 0.00 0.00 0.00 0.00 0.00 0.00 0.00 0.00 0.00 0.00 0.00 0.00 0.00 0.00 0.00 0.00 0.00 0.00 0.00 0.00 0.00 0.00 0.00 0.00 0.00 0.00 0.00 0.00 0.00 0.00 0.00 0.00 0.00 0.00
0.00 0.00 0.00 0.00 0.00 0.00 0.00 0.00 0.00 0.00 0.00 0.00 0.00 0.00 0.00 0.00 0.00 0.00 0.00 0.00 0.00 0.00 0.00 0.00 0.00 0.00 0.00 0.00 0.00 0.00 0.00 0.00 0.00 0.00 0.00 0.00 0.00 0.00
0.00 0.00 0.00 0.00 0.00 0.00 0.00 0.00 0.00 0.00 0.00 0.00 0.00 0.00 0.00 0.00 0.00 0.00 0.00 0.00 0.00 0.00 0.00 0.00 0.00 0.00 0.00 0.00 0.00 0.00 0.00 0.00 0.00 0.00 0.00 0.00 0.00 0.00
0.00 0.00 0.00 0.00 0.00 0.00 0.00 0.00 0.00 0.00 0.00 0.00 0.00 0.00 0.00 0.00 0.00 0.00 0.00 0.00 0.00 0.00 0.00 0.00 0.00 0.00 0.00 0.00 0.00 0.00 0.00 0.00 0.00 0.00 0.00 0.00 0.00 0.00
0.00 0.00 0.00 0.00 0.00 0.00 0.00 0.00 0.00 0.00 0.00 0.00 0.00 0.00 0.00 0.00 0.00 0.00 0.00 0.00 0.00 0.00 0.00 0.00 0.00 0.00 0.00 0.00 0.00 0.00 0.00 0.00 0.00 0.00 0.00 0.00 0.00 0.00
0.00 0.00 0.00 0.00 0.00 0.00 0.00 0.00 0.00 0.00 0.00 0.00 0.01 0.01 0.01 0.00 0.00 0.01 0.02 0.04 0.02 0.00 0.00 0.00 0.00 0.00 0.00 0.00 0.00 0.00 0.00 0.00 0.00 0.00 0.00 0.00 0.00 0.00
0.00 0.00 0.00 0.00 0.00 0.01 0.01 0.00 0.00 0.00 0.00 0.00 0.01 0.01 0.01 0.01 0.01 0.01 0.02 0.01 0.00 0.00 0.00 0.00 0.00 0.00 0.00 0.00 0.00 0.00 0.00 0.00 0.00 0.00 0.00 0.00 0.00 0.00
0.00 0.00 0.00 0.00 0.02 0.04 0.04 0.01 0.01 0.00 0.00 0.00 0.00 0.00 0.00 0.00 0.00 0.00 0.00 0.02 0.01 0.01 0.00 0.00 0.00 0.00 0.00 0.00 0.00 0.00 0.00 0.00 0.00 0.00 0.00 0.00 0.00 0.00
0.00 0.00 0.00 0.01 0.02 0.03 0.01 0.01 0.00 0.01 0.00 0.00 0.00 0.00 0.00 0.00 0.00 0.01 0.01 0.02 0.01 0.01 0.00 0.01 0.01 0.00 0.00 0.00 0.00 0.00 0.00 0.00 0.00 0.00 0.00 0.00 0.00 0.00
0.00 0.00 0.01 0.01 0.04 0.02 0.01 0.02 0.02 0.01 0.01 0.02 0.02 0.01 0.02 0.02 0.02 0.03 0.04 0.04 0.02 0.01 0.00 0.03 0.09 0.03 0.02 0.01 0.00 0.00 0.00 0.00 0.00 0.00 0.00 0.00 0.00 0.00
0.00 0.01 0.02 0.04 0.02 0.01 0.04 0.04 0.03 0.04 0.04 0.03 0.02 0.01 0.01 0.01 0.01 0.00 0.00 0.00 0.00 0.00 0.00 0.00 0.03 0.03 0.03 0.02 0.00 0.00 0.00 0.00 0.00 0.00 0.00 0.00 0.00 0.00
0.00 0.01 0.03 0.01 0.01 0.02 0.02 0.02 0.03 0.01 0.01 0.01 0.01 0.00 0.00 0.00 0.00 0.00 0.00 0.00 0.00 0.00 0.00 0.00 0.00 0.00 0.00 0.00 0.01 0.01 0.00 0.00 0.00 0.00 0.00 0.00 0.00 0.00
0.00 0.01 0.00 0.00 0.01 0.01 0.01 0.01 0.01 0.01 0.00 0.01 0.01 0.00 0.00 0.00 0.00 0.00 0.01 0.00 0.00 0.00 0.00 0.00 0.00 0.00 0.00 0.00 0.02 0.00 0.00 0.00 0.00 0.00 0.00 0.00 0.00 0.00
0.00 0.01 0.01 0.01 0.01 0.02 0.01 0.01 0.01 0.02 0.01 0.01 0.01 0.00 0.00 0.00 0.01 0.00 0.00 0.01 0.01 0.02 0.01 0.03 0.01 0.01 0.01 0.01 0.01 0.00 0.00 0.00 0.00 0.00 0.01 0.01 0.00 0.00
0.00 0.01 0.01 0.01 0.01 0.00 0.00 0.00 0.00 0.02 0.00 0.00 0.00 0.00 0.01 0.01 0.01 0.00 0.00 0.00 0.00 0.02 0.02 0.00 0.01 0.03 0.03 0.03 0.02 0.02 0.01 0.00 0.00 0.00 0.00 0.00 0.01 0.01
0.00 0.00 0.01 0.00 0.00 0.00 0.00 0.00 0.00 0.00 0.00 0.00 0.00 0.00 0.01 0.02 0.01 0.00 0.00 0.00 0.00 0.01 0.00 0.00 0.00 0.00 0.00 0.00 0.01 0.00 0.00 0.00 0.00 0.00 0.00 0.00 0.02 0.03
0.00 0.00 0.00 0.00 0.00 0.00 0.00 0.00 0.00 0.00 0.00 0.00 0.00 0.00 0.00 0.01 0.01 0.01 0.00 0.00 0.00 0.00 0.00 0.00 0.00 0.00 0.00 0.00 0.02 0.00 0.00 0.00 0.00 0.00 0.00 0.00 0.02 0.02
0.00 0.00 0.00 0.00 0.00 0.00 0.00 0.00 0.00 0.00 0.00 0.00 0.00 0.00 0.00 0.01 0.01 0.01 0.00 0.00 0.00 0.00 0.00 0.00 0.00 0.00 0.00 0.00 0.02 0.01 0.00 0.00 0.00 0.00 0.00 0.00 0.01 0.01
0.00 0.00 0.00 0.00 0.00 0.00 0.00 0.00 0.00 0.00 0.00 0.00 0.00 0.00 0.00 0.00 0.00 0.01 0.00 0.00 0.00 0.00 0.00 0.00 0.00 0.00 0.00 0.00 0.00 0.00 0.00 0.00 0.00 0.00 0.00 0.00 0.00 0.00
MSLP
1021.21 1021.02 1020.92 1020.76 1020.60 1020.51 1020.40 1020.22 1020.08 1019.63 1018.97 1018.38 1018.05 1017.38 1017.09 1016.82 1016.60 1016.67 1016.80 1017.47 1017.62 1017.05 1017.13 1017.12 1017.06 1017.03 1017.35 1016.99 1017.35 1017.66 1017.94 1018.02 1018.11 1018.02 1017.80 1017.66 1017.75 1017.80
1021.04 1020.93 1020.67 1020.47 1020.51 1020.36 1020.24 1020.01 1019.77 1019.56 1018.81 1018.43 1017.90 1017.31 1016.90 1016.68 1016.34 1016.19 1016.07 1016.35 1016.98 1017.06 1016.74 1016.45 1016.70 1017.05 1016.99 1016.62 1016.97 1017.32 1017.66 1017.92 1017.99 1018.02 1017.93 1017.74 1017.75 1017.83
1020.87 1020.85 1020.63 1020.26 1019.85 1019.48 1019.21 1018.97 1018.79 1018.63 1018.35 1017.75 1017.52 1017.14 1016.82 1016.61 1016.34 1016.08 1015.86 1015.88 1015.93 1016.14 1016.35 1015.88 1015.81 1016.24 1016.12 1016.17 1016.32 1016.86 1017.21 1017.54 1017.77 1017.88 1017.93 1017.95 1017.96 1017.89
1021.09 1020.90 1020.60 1020.32 1020.09 1019.69 1019.21 1018.86 1018.55 1018.25 1018.20 1018.01 1017.70 1017.48 1017.15 1016.80 1016.45 1016.26 1015.92 1015.71 1015.42 1015.08 1015.22 1015.18 1015.51 1015.54 1015.30 1015.57 1015.78 1016.29 1016.74 1017.03 1017.36 1017.65 1017.73 1017.74 1017.88 1017.96
1021.06 1020.84 1020.63 1020.42 1020.05 1019.56 1019.06 1018.58 1018.17 1017.91 1017.98 1017.99 1017.83 1017.54 1017.29 1016.95 1016.53 1016.02 1015.69 1015.55 1015.18 1014.88 1014.70 1014.69 1014.73 1014.64 1014.53 1014.92 1015.21 1015.67 1016.02 1016.34 1016.72 1017.07 1017.24 1017.42 1017.49 1017.65
1021.05 1020.86 1020.58 1020.20 1019.77 1019.33 1018.80 1018.27 1017.81 1017.62 1017.54 1017.53 1017.47 1017.53 1017.37 1017.02 1016.80 1016.45 1016.03 1015.72 1015.56 1015.06 1015.01 1014.85 1014.72 1014.46 1014.76 1014.97 1015.24 1015.35 1015.25 1015.65 1016.06 1016.42 1016.60 1016.85 1016.95 1017.07
1020.88 1020.68 1020.30 1019.85 1019.31 1018.86 1018.40 1018.09 1017.79 1017.52 1017.30 1017.30 1017.38 1017.42 1017.36 1017.18 1017.09 1016.64 1016.49 1016.08 1015.50 1015.26 1014.88 1014.60 1014.54 1014.61 1014.69 1014.66 1014.66 1014.83 1014.97 1015.25 1015.54 1015.83 1016.04 1016.21 1016.36 1016.54
1020.65 1020.26 1019.99 1019.50 1018.93 1018.65 1018.30 1017.93 1017.72 1017.50 1017.31 1017.25 1017.18 1017.17 1017.04 1016.94 1016.68 1016.55 1016.29 1016.17 1015.77 1014.98 1014.95 1014.79 1014.66 1014.59 1014.54 1014.49 1014.46 1014.47 1014.44 1014.61 1014.86 1015.06 1015.19 1015.31 1015.48 1015.67
1020.36 1019.96 1019.53 1019.12 1018.79 1018.28 1017.83 1017.46 1017.15 1016.87 1016.63 1016.61 1016.55 1016.46 1016.46 1016.30 1016.29 1016.19 1016.02 1015.86 1015.48 1014.91 1014.79 1014.64 1014.59 1014.71 1014.41 1014.16 1014.09 1014.03 1014.06 1014.22 1014.33 1014.41 1014.57 1014.63 1014.61 1014.81
1020.06 1019.69 1019.28 1018.75 1018.31 1017.79 1017.27 1016.90 1016.52 1016.24 1016.04 1015.79 1015.57 1015.42 1015.59 1015.48 1015.58 1015.51 1015.37 1015.14 1014.85 1014.62 1014.59 1014.47 1014.25 1014.22 1013.95 1013.63 1013.48 1013.45 1013.47 1013.57 1013.62 1013.65 1013.69 1013.78 1013.90 1014.06
1019.83 1019.45 1018.94 1018.35 1017.84 1017.25 1016.89 1016.59 1016.18 1015.65 1015.22 1014.88 1014.62 1014.57 1014.65 1014.60 1014.53 1014.65 1014.57 1014.56 1014.05 1013.98 1013.88 1013.95 1013.80 1013.72 1013.34 1013.08 1012.76 1012.57 1012.53 1012.55 1012.61 1012.73 1012.93 1012.99 1013.09 1013.21
1019.70 1019.13 1018.61 1018.05 1017.48 1016.98 1016.33 1016.12 1015.83 1015.39 1015.12 1014.81 1014.63 1014.31 1014.16 1013.95 1013.75 1013.78 1013.65 1013.65 1013.50 1013.29 1012.81 1013.27 1013.03 1013.25 1013.01 1012.19 1011.98 1011.69 1011.79 1011.66 1011.77 1011.92 1012.01 1012.17 1012.42 1012.65
1019.54 1018.87 1018.25 1017.63 1017.13 1016.41 1015.99 1015.70 1015.33 1014.95 1014.64 1014.48 1014.24 1013.93 1013.61 1013.30 1012.92 1012.64 1012.53 1012.52 1012.52 1012.35 1011.93 1012.38 1012.17 1012.33 1012.56 1012.43 1011.81 1011.44 1011.48 1011.22 1011.23 1011.15 1011.18 1011.27 1011.40 1011.67
1019.44 1018.71 1018.04 1017.33 1016.51 1016.03 1015.65 1014.90 1014.63 1014.40 1014.15 1014.00 1013.77 1013.40 1012.98 1012.58 1012.24 1011.93 1011.56 1011.42 1011.44 1011.44 1011.06 1011.50 1011.45 1011.46 1011.45 1011.65 1011.63 1011.02 1010.88 1010.75 1010.83 1010.89 1010.85 1010.70 1010.67 1010.75
1019.22 1018.55 1017.79 1017.16 1016.68 1016.16 1015.62 1015.11 1014.53 1014.31 1014.04 1013.75 1013.49 1013.21 1012.86 1012.38 1011.94 1011.53 1011.03 1010.76 1010.59 1010.53 1010.41 1010.38 1010.52 1010.57 1010.69 1010.73 1010.93 1010.77 1010.84 1010.64 1010.47 1010.46 1010.56 1010.73 1010.56 1010.61
1018.97 1018.38 1017.97 1017.56 1016.99 1016.49 1016.01 1015.58 1015.15 1014.82 1014.51 1014.13 1013.71 1013.22 1012.72 1012.26 1011.92 1011.52 1011.15 1010.65 1010.48 1009.97 1009.50 1009.44 1009.63 1010.04 1010.14 1010.26 1010.37 1010.43 1010.54 1010.69 1010.29 1010.33 1010.18 1009.96 1009.95 1009.86
1018.98 1018.59 1018.27 1017.86 1017.33 1016.83 1016.45 1016.00 1015.55 1015.11 1014.73 1014.31 1013.82 1013.39 1012.91 1012.44 1012.01 1011.55 1011.10 1010.63 1010.48 1010.23 1009.63 1009.07 1009.07 1009.38 1009.62 1009.78 1009.94 1009.95 1010.06 1010.07 1009.89 1009.91 1009.92 1009.74 1009.43 1009.31
1019.26 1019.06 1018.81 1018.42 1017.96 1017.48 1017.05 1016.55 1016.01 1015.47 1015.10 1014.64 1014.12 1013.71 1013.22 1012.70 1012.16 1011.66 1011.34 1011.05 1010.74 1010.19 1009.80 1009.63 1009.25 1009.30 1009.42 1009.47 1009.46 1009.46 1009.65 1009.71 1009.61 1009.52 1009.50 1009.36 1009.05 1008.79
1019.81 1019.59 1019.32 1018.93 1018.55 1018.12 1017.72 1017.26 1016.72 1016.09 1015.67 1015.21 1014.72 1014.19 1013.56 1012.93 1012.41 1012.04 1011.74 1011.38 1010.97 1010.56 1010.47 1010.21 1009.98 1009.84 1009.68 1009.71 1009.69 1009.50 1009.47 1009.50 1009.52 1009.58 1009.44 1009.22 1009.01 1008.46
1020.33 1020.06 1019.71 1019.36 1019.01 1018.65 1018.28 1017.87 1017.33 1016.75 1016.27 1015.86 1015.35 1014.77 1014.09 1013.40 1012.90 1012.51 1012.16 1011.88 1011.47 1011.06 1010.76 1010.40 1010.22 1010.19 1010.18 1009.96 1009.94 1009.94 1009.48 1009.62 1009.60 1009.48 1009.34 1009.02 1008.79 1008.36
1020.89 1020.54 1020.07 1019.70 1019.40 1019.06 1018.75 1018.33 1017.89 1017.47 1017.03 1016.54 1016.06 1015.50 1014.84 1014.09 1013.53 1013.04 1012.65 1012.22 1011.86 1011.56 1011.30 1010.91 1010.37 1009.81 1009.63 1009.66 1009.98 1010.21 1009.86 1009.52 1009.58 1009.63 1009.50 1009.16 1008.84 1008.41
1021.19 1020.83 1020.43 1020.08 1019.76 1019.43 1019.05 1018.74 1018.33 1018.01 1017.63 1017.19 1016.75 1016.17 1015.49 1014.79 1014.23 1013.63 1013.25 1012.87 1012.44 1012.17 1011.71 1010.94 1010.20 1009.71 1009.58 1009.74 1010.04 1010.35 1010.20 1009.89 1009.61 1009.46 1009.40 1009.33 1009.19 1008.88
1021.07 1020.82 1020.57 1020.30 1019.99 1019.71 1019.38 1019.11 1018.84 1018.67 1018.28 1017.85 1017.39 1016.79 1016.19 1015.48 1014.91 1014.36 1013.85 1013.39 1012.93 1012.51 1012.10 1011.44 1010.70 1010.25 1009.97 1009.96 1010.11 1010.48 1010.37 1010.07 1009.86 1009.73 1009.69 1009.33 1009.12 1009.00
Thickness
5316 5311 5308 5306 5304 5301 5300 5298 5298 5307 5311 5316 5321 5327 5333 5339 5347 5353 5359 5362 5367 5374 5381 5386 5398 5405 5409 5422 5426 5429 5435 5443 5449 5458 5468 5478 5487 5496
5301 5297 5295 5293 5290 5290 5288 5288 5287 5284 5298 5303 5308 5312 5315 5320 5325 5331 5340 5344 5347 5351 5364 5373 5374 5378 5389 5401 5407 5413 5416 5423 5432 5440 5449 5459 5468 5476
5287 5283 5281 5281 5281 5282 5281 5281 5281 5281 5283 5295 5297 5301 5305 5306 5310 5314 5321 5325 5331 5337 5341 5354 5361 5363 5371 5383 5390 5397 5401 5405 5414 5422 5430 5438 5447 5456
5270 5268 5266 5265 5262 5262 5263 5265 5266 5268 5268 5273 5278 5282 5286 5290 5295 5299 5305 5310 5317 5324 5329 5339 5343 5348 5358 5366 5374 5378 5384 5390 5394 5401 5411 5424 5428 5436
5255 5252 5249 5246 5245 5245 5246 5250 5251 5253 5253 5255 5259 5266 5269 5274 5280 5287 5293 5297 5304 5310 5316 5323 5330 5339 5346 5352 5358 5361 5367 5374 5383 5385 5393 5403 5413 5420
5241 5235 5231 5228 5227 5226 5228 5232 5236 5237 5239 5241 5246 5248 5253 5259 5263 5268 5275 5282 5287 5296 5302 5308 5315 5325 5329 5333 5341 5347 5354 5358 5363 5370 5377 5386 5395 5404
5226 5220 5216 5214 5213 5212 5213 5216 5218 5219 5223 5225 5228 5231 5236 5241 5245 5253 5258 5265 5275 5281 5287 5295 5302 5308 5313 5317 5324 5330 5336 5339 5345 5353 5361 5369 5378 5387
5212 5210 5205 5203 5201 5200 5199 5200 5202 5204 5207 5209 5214 5217 5223 5227 5234 5238 5246 5252 5261 5270 5272 5279 5287 5293 5298 5304 5309 5315 5323 5328 5333 5340 5347 5355 5363 5371
5200 5197 5196 5193 5189 5190 5190 5190 5192 5194 5197 5200 5204 5208 5212 5219 5224 5231 5235 5240 5249 5256 5262 5269 5271 5276 5281 5287 5292 5299 5306 5314 5321 5327 5333 5341 5350 5357
5188 5183 5182 5182 5179 5180 5182 5182 5183 5185 5187 5192 5197 5204 5206 5213 5218 5224 5230 5236 5244 5248 5250 5258 5258 5266 5271 5277 5282 5287 5293 5300 5308 5315 5322 5329 5336 5344
5179 5173 5171 5171 5170 5171 5172 5172 5175 5178 5182 5188 5194 5200 5205 5211 5217 5221 5227 5229 5238 5240 5241 5246 5252 5253 5258 5265 5273 5277 5282 5288 5294 5299 5307 5316 5324 5330
5173 5169 5165 5163 5162 5162 5165 5166 5168 5172 5177 5182 5189 5197 5204 5211 5217 5221 5225 5227 5231 5233 5236 5238 5245 5242 5244 5257 5262 5268 5273 5278 5282 5288 5294 5299 5305 5313
5171 5169 5166 5164 5162 5163 5164 5165 5168 5172 5178 5183 5190 5198 5205 5212 5219 5225 5228 5230 5232 5233 5234 5235 5237 5238 5241 5246 5250 5256 5260 5266 5271 5277 5283 5289 5295 5300
5171 5169 5168 5167 5168 5168 5168 5173 5175 5178 5183 5188 5195 5203 5210 5217 5222 5226 5230 5232 5233 5234 5235 5233 5235 5235 5238 5239 5240 5245 5250 5256 5260 5264 5269 5276 5284 5289
5172 5170 5170 5169 5168 5169 5171 5174 5180 5183 5188 5194 5200 5205 5211 5217 5222 5227 5232 5235 5236 5237 5237 5235 5234 5231 5229 5229 5229 5232 5236 5243 5249 5253 5259 5264 5270 5276
5173 5172 5171 5169 5169 5170 5173 5176 5180 5184 5188 5193 5199 5206 5213 5219 5222 5226 5230 5234 5234 5237 5241 5239 5233 5225 5220 5217 5219 5223 5226 5230 5237 5244 5249 5253 5260 5265
5174 5173 5172 5171 5172 5174 5175 5178 5182 5186 5189 5194 5201 5207 5213 5218 5222 5225 5229 5235 5233 5231 5235 5238 5233 5225 5216 5212 5213 5218 5222 5226 5232 5236 5242 5247 5252 5257
5173 5170 5169 5170 5171 5174 5175 5178 5182 5187 5189 5194 5200 5205 5210 5215 5220 5224 5226 5226 5230 5233 5234 5233 5230 5225 5218 5216 5216 5220 5220 5224 5228 5233 5236 5241 5245 5249
5168 5167 5166 5168 5169 5171 5173 5175 5178 5183 5187 5191 5196 5201 5207 5212 5217 5219 5221 5224 5227 5229 5225 5223 5221 5218 5220 5217 5214 5217 5221 5223 5224 5225 5229 5231 5237 5241
5164 5164 5164 5164 5166 5167 5169 5171 5174 5179 5182 5186 5190 5195 5201 5208 5211 5214 5216 5217 5220 5222 5221 5220 5217 5215 5213 5210 5210 5209 5216 5215 5217 5220 5224 5227 5229 5233
5156 5159 5160 5161 5161 5162 5163 5166 5169 5172 5175 5179 5183 5188 5193 5200 5204 5208 5210 5212 5213 5216 5219 5218 5218 5221 5220 5216 5211 5206 5208 5212 5212 5212 5215 5218 5225 5229
5148 5151 5154 5156 5156 5158 5159 5160 5163 5165 5168 5172 5175 5180 5185 5191 5196 5201 5203 5206 5207 5205 5210 5214 5219 5222 5220 5219 5214 5205 5204 5205 5208 5208 5210 5212 5214 5219
5144 5145 5147 5149 5151 5153 5155 5156 5156 5156 5160 5163 5167 5171 5176 5182 5186 5191 5195 5197 5202 5202 5204 5210 5214 5215 5217 5215 5214 5208 5203 5204 5203 5203 5202 5205 5208 5210